Location: Lugano
(46.0000°N, 8.9670°E)
Time: 16:20:48
(UTC+02:00)

Envisat - Pass Details

Date: 14 March 2026
Orbit: 761 x 762 km, 98.4° (Epoch: 19 April)

Event Time Altitude Azimuth Distance (km) Brightness Sun altitude
Rises 04:21:43 0° 2° (N) 3,236 6.6 -24.2°
Reaches altitude 10° 04:24:24 10° 349° (N) 2,305 5.6 -23.7°
Enters shadow 04:27:04 21° 320° (NW) 1,656 4.5 -23.3°
